GTI248 CYHZ-CYYZ

Flight info

Callsign GTI248
Flight time N/A
Altitude 36000
Route KELNO Q806 TUKIR RAGID6
Aircraft B748/H-SDE3FGHIM1M2RWXY/LB1

Departure

Time 2026-05-06 22:02
Airport Halifax / Stanfield International Airport (CYHZ)

Arrival

Time N/A
Airport Toronto Pearson International Airport (CYYZ)
Time Latitude Longitude Altitude Speed Heading
2026-05-06 21:28 44.86696 -63.53196 465 ft 0 kts 222°
2026-05-06 21:41 44.86701 -63.53189 465 ft 2 kts 222°
2026-05-06 21:41 44.86715 -63.53173 461 ft 3 kts 222°
2026-05-06 21:41 44.86729 -63.53155 462 ft 3 kts 222°
2026-05-06 21:42 44.86743 -63.53137 461 ft 3 kts 222°
2026-05-06 21:42 44.86757 -63.53119 462 ft 3 kts 222°
2026-05-06 21:42 44.86771 -63.53102 462 ft 3 kts 222°
2026-05-06 21:42 44.86778 -63.53092 460 ft 0 kts 222°
2026-05-06 21:49 44.86777 -63.53093 460 ft 1 kts 218°
2026-05-06 21:49 44.86765 -63.53094 461 ft 2 kts 181°
2026-05-06 21:49 44.86743 -63.53076 463 ft 6 kts 143°
2026-05-06 21:50 44.86723 -63.53011 465 ft 8 kts 89°
2026-05-06 21:50 44.86762 -63.52928 464 ft 14 kts 50°
2026-05-06 21:50 44.86839 -63.52802 464 ft 20 kts 48°
2026-05-06 21:50 44.86948 -63.52679 464 ft 19 kts 34°
2026-05-06 21:51 44.87048 -63.52580 464 ft 16 kts 35°
2026-05-06 21:51 44.87136 -63.52492 464 ft 14 kts 35°
2026-05-06 21:51 44.87212 -63.52416 463 ft 13 kts 35°
2026-05-06 21:51 44.87279 -63.52349 464 ft 11 kts 35°
2026-05-06 21:52 44.87336 -63.52292 463 ft 9 kts 36°
2026-05-06 21:52 44.87385 -63.52243 463 ft 8 kts 36°
2026-05-06 21:52 44.87425 -63.52202 463 ft 6 kts 36°
2026-05-06 21:52 44.87457 -63.52172 463 ft 4 kts 34°
2026-05-06 21:53 44.87479 -63.52151 463 ft 3 kts 34°
2026-05-06 21:53 44.87500 -63.52131 462 ft 5 kts 34°
2026-05-06 21:53 44.87533 -63.52099 463 ft 7 kts 34°
2026-05-06 21:53 44.87579 -63.52055 463 ft 9 kts 35°
2026-05-06 21:54 44.87639 -63.51995 463 ft 12 kts 35°
2026-05-06 21:54 44.87713 -63.51921 462 ft 14 kts 35°
2026-05-06 21:54 44.87801 -63.51834 463 ft 17 kts 35°
2026-05-06 21:54 44.87900 -63.51734 463 ft 19 kts 36°
2026-05-06 21:55 44.88012 -63.51621 462 ft 21 kts 36°
2026-05-06 21:55 44.88135 -63.51500 462 ft 23 kts 34°
2026-05-06 21:55 44.88271 -63.51368 460 ft 25 kts 34°
2026-05-06 21:55 44.88381 -63.51262 461 ft 13 kts 34°
2026-05-06 21:56 44.88471 -63.51220 461 ft 14 kts
2026-05-06 21:56 44.88574 -63.51237 460 ft 16 kts 349°
2026-05-06 21:56 44.88665 -63.51241 460 ft 11 kts 20°
2026-05-06 21:56 44.88694 -63.51184 460 ft 5 kts 79°
2026-05-06 21:57 44.88699 -63.51145 460 ft 3 kts 79°
2026-05-06 21:57 44.88701 -63.51124 460 ft 1 kts 79°
2026-05-06 21:57 44.88703 -63.51110 460 ft 1 kts 79°
2026-05-06 21:57 44.88705 -63.51096 460 ft 3 kts 79°
2026-05-06 21:58 44.88710 -63.51056 460 ft 5 kts 79°
2026-05-06 21:58 44.88719 -63.50991 460 ft 8 kts 77°
2026-05-06 21:58 44.88742 -63.50924 460 ft 8 kts 49°
2026-05-06 21:58 44.88793 -63.50859 459 ft 11 kts 38°
2026-05-06 21:59 44.88867 -63.50779 459 ft 15 kts 34°
2026-05-06 21:59 44.88944 -63.50705 460 ft 12 kts 37°
2026-05-06 21:59 44.88993 -63.50629 460 ft 9 kts 63°
2026-05-06 21:59 44.88994 -63.50579 460 ft 3 kts 108°
2026-05-06 22:00 44.88983 -63.50550 460 ft 5 kts 121°
2026-05-06 22:00 44.88959 -63.50498 460 ft 8 kts 126°
2026-05-06 22:00 44.88925 -63.50437 460 ft 6 kts 135°
2026-05-06 22:00 44.88906 -63.50427 461 ft 2 kts 172°
2026-05-06 22:01 44.88894 -63.50433 461 ft 2 kts 202°
2026-05-06 22:01 44.88884 -63.50443 461 ft 0 kts 214°
2026-05-06 22:01 44.88853 -63.50473 461 ft 27 kts 214°
2026-05-06 22:01 44.88435 -63.50884 460 ft 119 kts 217°
2026-05-06 22:02 44.87612 -63.51772 1096 ft 154 kts 214°
2026-05-06 22:02 44.86830 -63.52617 2762 ft 138 kts 216°
2026-05-06 22:02 44.85935 -63.53464 3575 ft 173 kts 212°
2026-05-06 22:02 44.84877 -63.54523 4373 ft 203 kts 224°
2026-05-06 22:03 44.84314 -63.56502 5458 ft 241 kts 258°
2026-05-06 22:03 44.84544 -63.58920 6997 ft 255 kts 274°
2026-05-06 22:03 44.85107 -63.61358 8573 ft 266 kts 287°
2026-05-06 22:03 44.86006 -63.63664 10157 ft 274 kts 295°
2026-05-06 22:04 44.87116 -63.65966 11184 ft 298 kts 298°
2026-05-06 22:04 44.88374 -63.68426 12158 ft 320 kts 300°
2026-05-06 22:04 44.89725 -63.71003 13188 ft 339 kts 300°
2026-05-06 22:04 44.91158 -63.73753 14217 ft 355 kts 299°
2026-05-06 22:05 44.92608 -63.76674 15122 ft 370 kts 298°
2026-05-06 22:05 44.94106 -63.79752 15942 ft 385 kts 298°
2026-05-06 22:05 44.95635 -63.82910 16773 ft 398 kts 298°
2026-05-06 22:05 44.97207 -63.86152 17591 ft 411 kts 298°
2026-05-06 22:06 44.98877 -63.89577 18509 ft 421 kts 298°
2026-05-06 22:06 45.00529 -63.92949 19372 ft 426 kts 298°
2026-05-06 22:06 45.02230 -63.96423 20274 ft 432 kts 298°
2026-05-06 22:06 45.03916 -63.99869 21130 ft 437 kts 298°
2026-05-06 22:07 45.05687 -64.03499 22018 ft 443 kts 297°
2026-05-06 22:07 45.07423 -64.07066 22849 ft 449 kts 297°
2026-05-06 22:07 45.09211 -64.10756 23671 ft 454 kts 297°
2026-05-06 22:07 45.11020 -64.14497 24440 ft 458 kts 297°
2026-05-06 22:08 45.12625 -64.18255 25166 ft 452 kts 287°
2026-05-06 22:08 45.13638 -64.22543 25962 ft 447 kts 279°
2026-05-06 22:08 45.14201 -64.26814 26696 ft 445 kts 273°
2026-05-06 22:08 45.14554 -64.31094 27395 ft 447 kts 271°
2026-05-06 22:09 45.14876 -64.35484 28108 ft 451 kts 272°
2026-05-06 22:09 45.15328 -64.39926 28967 ft 452 kts 275°
2026-05-06 22:09 45.15846 -64.44304 30016 ft 449 kts 276°
2026-05-06 22:09 45.16380 -64.48650 30854 ft 447 kts 276°
2026-05-06 22:10 45.16860 -64.52982 31637 ft 445 kts 275°
2026-05-06 22:10 45.17288 -64.57308 32459 ft 443 kts 274°
2026-05-06 22:10 45.17727 -64.61609 33324 ft 442 kts 275°
2026-05-06 22:10 45.18227 -64.65929 34180 ft 439 kts 275°
2026-05-06 22:11 45.18673 -64.70137 35007 ft 434 kts 274°
2026-05-06 22:11 45.19087 -64.74414 35876 ft 427 kts 274°
2026-05-06 22:11 45.19993 -64.82668 35902 ft 424 kts 275°
2026-05-06 22:12 45.20818 -64.90983 35934 ft 424 kts 275°
2026-05-06 22:12 45.21711 -64.99194 35915 ft 424 kts 274°
2026-05-06 22:13 45.22529 -65.07466 35923 ft 425 kts 275°
2026-05-06 22:13 45.23401 -65.15817 35923 ft 425 kts 273°
2026-05-06 22:14 45.24242 -65.24078 35924 ft 426 kts 274°
2026-05-06 22:14 45.25056 -65.32422 35919 ft 426 kts 273°
2026-05-06 22:15 45.25925 -65.40718 35922 ft 427 kts 273°
2026-05-06 22:15 45.26711 -65.49078 35909 ft 429 kts 274°
2026-05-06 22:16 45.27559 -65.57278 35908 ft 429 kts 273°